Regional Weather Roundup
Issued by NWS

Home | Current Version | Previous Version | Text Only | Print | Product List | Glossary Off
Versions: 1 2 3 4 5 6 7 8 9 10 11 12 13 14 15 16 17 18 19 20 21 22 23 24 25 26 27 28 29 30 31 32 33 34 35 36 37 38 39 40 41 42 43 44 45 46 47 48 49 50

000
ASUS43 KLOT 160404
RWRIL

ILLINOIS REGIONAL WEATHER ROUNDUP
NATIONAL WEATHER SERVICE CHICAGO/ROMEOVILLE IL
1100 PM CDT TUE AUG 15 2017

NOTE: "FAIR" INDICATES FEW OR NO CLOUDS BELOW 12,000 FEET WITH NO
SIGNIFICANT WEATHER AND/OR OBSTRUCTIONS TO VISIBILITY.

* THESE STATIONS ARE NOT UNDER NWS QUALITY CONTROL. THEY ALSO MAY NOT
  REPORT WEATHER SUCH AS PRECIPITATION OR FOG.

ILZ001-002-007-009-015-016-024-160500-
NORTHWEST ILLINOIS

CITY           SKY/WX    TMP DP  RH WIND       PRES   REMARKS
MOLINE         CLEAR     73  66  78 E8        29.95R
STERLING*      MOCLDY    67  65  93 E8        29.98R
SAVANNA*       PTCLDY    67  64  91 CALM      29.98R
$$

ILZ003-004-008-010-011-017-018-160500-
NORTH CENTRAL ILLINOIS

CITY           SKY/WX    TMP DP  RH WIND       PRES   REMARKS
ROCKFORD       MOCLDY    68  60  75 E7        30.01R
FREEPORT*      MOCLDY    62  61  97 E3        30.02R
ROCHELLE*      PTCLDY    65  61  86 E7        30.00S
PERU*          PTCLDY    68  65  89 E8        29.99R
$$

ILZ005-006-012>014-019>023-160500-
NORTHEAST ILLINOIS

CITY           SKY/WX    TMP DP  RH WIND       PRES   REMARKS
CHICAGO-OHARE  PTCLDY    70  62  76 NE6       30.00R
CHICAGO-MIDWAY MOCLDY    71  64  78 NE8       29.99R
AURORA         PTCLDY    65  62  90 NE5       30.00R
LANSING*       PTCLDY    69  64  82 NE3       29.99S
JOLIET*        PTCLDY    70  65  85 NE3       29.99R
WAUKEGAN       CLEAR     62  61  96 N3        30.01R
DUPAGE AIRPORT PTCLDY    64  62  93 N6        30.00R
WHEELING       CLEAR     66  64  93 CALM      30.02R
MORRIS*        PTCLDY    67  63  89 CALM      29.98R
NORTHERLY ISL    N/A     70  64  81 NE9         N/A
$$

LMZ740>746-160500-
SOUTHERN LAKE MICHIGAN

STATION/POSITION SKY/WX   TEMP    WIND        PRES    VSBY  WAVE
                          AIR SEA DIR/SP/G                  HT/PER
                          (F)     (DEG/KT/KT) (MB)    (MI)  (FT/S)
SOUTHERN BUOY              69 71   30/ 12/ 14 1015.2          2/ 5
WILMETTE HARBOR            71 72   40/  8/ 10   N/A           3/ 4
HARRISON CRIB              72      50/ 10/ 11   N/A
CALUMET HARBOR             71                 1015.1R
BURNS HARBOR               72      50/ 11/ 13 1015.9R
MICHIGAN CITY              71      60/  6/  7   N/A
MICHIGAN CITY 6N           72 74   60/ 10/ 12   N/A           3/ 4
ST. JOSEPH                 71 74   90/  6/  8 1015.2R         3/ 5
$$

ILZ025>027-034>036-040-047-049-050-058-095>099-160500-
WEST-CENTRAL ILLINOIS

CITY           SKY/WX    TMP DP  RH WIND       PRES   REMARKS
QUINCY         CLEAR     77  70  79 E7        29.92R
GALESBURG*     PTCLDY    72  67  84 NE5       29.96R
MACOMB*        CLOUDY    70  69  97 NE3       29.96R
JACKSONVILLE*  CLEAR     71  68  89 CALM      29.93R
PITTSFIELD*    CLEAR     73  70  89 E3        29.93S
$$

ILZ028>032-037-038-041>044-048-051>054-059>061-160500-
CENTRAL ILLINOIS

CITY           SKY/WX    TMP DP  RH WIND       PRES   REMARKS
PONTIAC        PTCLDY    69  69  99 CALM      29.98R
DECATUR        CLEAR     69  67  93 E5        29.96R
PEORIA         MOCLDY    77  69  76 E8        29.95R
LACON*         MOCLDY    71  67  89 E10       29.96R
LINCOLN*       CLEAR     72  70  94 CALM      29.95R
SPRINGFIELD    CLEAR     76  71  85 SE3       29.94R
TAYLORVILLE    CLEAR     70  69  98 CALM      29.95R
$$

ILZ033-039-045-046-055>057-062-063-160500-
EAST-CENTRAL ILLINOIS

CITY           SKY/WX    TMP DP  RH WIND       PRES   REMARKS
CHAMPAIGN      CLEAR     70  67  90 E3        29.96R
RANTOUL*       MOCLDY    74  71  89 CALM      29.96R
MATTOON        CLEAR     73  70  90 S5        29.95R
PARIS*         CLEAR     71  69  92 SE3       29.97R
$$

ILZ079-100>102-160500-
SOUTHWEST ILLINOIS

CITY           SKY/WX    TMP DP  RH WIND       PRES   REMARKS
BELLEVILLE     CLEAR     75  70  86 S5        29.96R
CAHOKIA*       CLEAR     76  69  79 SE5       29.93R
SPARTA*        CLEAR     76  72  87 S3        29.96S
$$

ILZ064>066-069>071-074>076-080>082-084>086-088>090-092>094-160500-
SOUTH-CENTRAL ILLINOIS

CITY           SKY/WX    TMP DP  RH WIND       PRES   REMARKS
CARBONDALE     CLEAR     73  72  96 SW6       29.96R
CAIRO*         CLEAR     74  73  93 SW3       29.95F
EFFINGHAM*     CLEAR     76  73  88 S5        29.97R
MARION         CLEAR     75  75 100 CALM      29.97S
MT. VERNON     CLEAR     72  70  93 CALM      29.96R
CENTRALIA*     CLEAR     73  72  96 CALM      29.95S
SALEM*         CLEAR     76  71  82 S3        29.96R
METROPOLIS*    CLEAR     76  73  91 SW5       29.97R
$$

ILZ067-068-072-073-078-083-087-091-160500-
SOUTHEAST ILLINOIS

CITY           SKY/WX    TMP DP  RH WIND       PRES   REMARKS
LAWRENCEVILLE  CLEAR     72  69  90 CALM      29.96R
FLORA*         CLEAR     73  71  91 S3        29.97R
FAIRFIELD*     CLEAR     70  70  98 CALM      29.95R
HARRISBURG*    CLEAR     71  70  98 CALM      29.96R FOG
ROBINSON*      CLEAR     65  65  99 CALM      29.96S FOG
CARMI*         CLEAR     69  69 100 CALM      29.95S
$$

ABBREVIATIONS USED IN REMARKS
   TC - TEMPERATURE IN CELSIUS
  WCI - WIND CHILL INDEX
   HX - HEAT INDEX
  VSB - VISIBILITY
$$





USA.gov is the U.S. government's official web portal to all federal, state and local government web resources and services.